Location: Castelbiague
(43.0361°N, 0.9246°E)
Time: 18:10:20
(UTC+00:00)

In-Cosmos 22 - Visible Passes

Search period start: 23 October 2021 00:00
Search period end: 02 November 2021 00:00
Orbit: 784 x 877 km, 81.2° (Epoch: 22 October)

Date Brightness Start Highest point End Pass type
(mag) Time Alt. Az. Time Alt. Az. Time Alt. Az.
23 Oct 6.5 02:55:11 10° SE 02:58:37 18° E 03:02:03 10° NE visible
23 Oct 4.1 04:35:52 12° SSW 04:40:35 56° WNW 04:45:48 10° N visible
24 Oct 6.8 02:38:33 11° ESE 02:40:46 14° E 02:43:29 10° NE visible
24 Oct 3.9 04:20:17 34° SSW 04:22:34 69° WNW 04:27:52 10° N visible
25 Oct 6.9 02:22:20 11° E 02:22:57 11° E 02:24:30 10° ENE visible
25 Oct 3.9 04:04:00 71° SSW 04:04:35 84° W 04:09:55 10° N visible
25 Oct 5.8 05:46:31 10° WNW 05:47:59 11° WNW 05:49:26 10° NW visible
26 Oct 4.3 03:47:22 65° NNE 03:47:22 65° NNE 03:51:56 10° NNE visible
26 Oct 5.6 05:29:02 13° WNW 05:29:49 14° WNW 05:32:27 10° NNW visible
27 Oct 5.1 03:30:31 39° NNE 03:30:31 39° NNE 03:33:55 10° NNE visible
27 Oct 5.6 05:12:09 17° WNW 05:12:09 17° WNW 05:15:02 10° NNW visible
28 Oct 5.8 03:13:30 26° NNE 03:13:30 26° NNE 03:15:52 10° NNE visible
28 Oct 5.6 04:55:08 18° NW 04:55:08 18° NW 04:57:28 10° NNW visible
29 Oct 6.4 02:56:22 18° NNE 02:56:22 18° NNE 02:57:45 10° NNE visible
29 Oct 5.7 04:38:00 18° NNW 04:38:00 18° NNW 04:39:47 10° NNW visible
30 Oct 6.8 02:39:08 12° NNE 02:39:08 12° NNE 02:39:38 10° NNE visible
30 Oct 6.0 04:20:46 16° NNW 04:20:46 16° NNW 04:22:02 10° N visible
31 Oct 6.2 04:03:27 14° N 04:03:27 14° N 04:04:14 10° N visible
01 Nov 6.5 03:46:06 11° N 03:46:06 11° N 03:46:23 10° N visible
